Regional Weather Roundup
Issued by NWS Midland/Odessa, TX

Skip options and go directly to product.
Home | Oldest Version | Next Version | Current Version | All | Text Only | Save Text | Print | Product List | Glossary On

Skip product version selection by date and time.   
265
ASUS44 KMAF 240102
RWRMAF
MIDLAND AREA WEATHER ROUNDUP
NATIONAL WEATHER SERVICE MIDLAND TX
800 PM CDT WED APR 23 2014

...IN SOUTHWEST TEXAS AND SOUTHEAST NEW MEXICO...

CITY           SKY/WX    TMP DP  RH WIND       PRES   REMARKS
ALPINE         CLOUDY    83  17   8 SW13      29.85S
ANDREWS        FAIR      85  27  12 SW12      29.68S
ARTESIA        CLEAR     82  18   9 SW24G32   29.67F
BIG SPRING     PTCLDY    88  32  13 SW13      29.66S
CARLSBAD       CLEAR     84  13   7 W20       29.68R
DRYDEN           N/A     84  58  40 SE15G28   29.68R
FORT STOCKTON  CLOUDY    87  21   9 NW9       29.69S
GUAD PASS      CLEAR     74  15  10 SW32G44   29.82R
HOBBS          PTCLDY    82  18   9 SW20G28   29.70S
MARFA          CLOUDY    79  19  11 W12       29.85S
MIDLAND AIRPK  MOCLDY    88  33  14 W9G17     29.66S
MIDLAND INTL   MOCLDY    87  38  17 SW9       29.65F
ODESSA           N/A    N/A N/A N/A MISG      29.67F
PECOS          CLOUDY    86  33  14 SW14      29.65S
PRESIDIO       FAIR      90  14   6 S9        29.70S
SEMINOLE       CLOUDY    84  22  10 W17G23    29.69S
SNYDER         MOCLDY    88  45  22 S15G23    29.63S
WINK           MOCLDY    89  20   8 W13       29.64F
$$
...OTHER STATIONS IN TEXAS...

CITY           SKY/WX    TMP DP  RH WIND       PRES   REMARKS
ABILENE        MOCLDY    86  54  33 S20G28    29.62S
AMARILLO       CLEAR     83  10   6 S23       29.57S
AUSTIN         MOCLDY    79  63  57 SE16G25   29.76S
BROWNSVILLE    PTCLDY    75  67  76 SE17G24   29.82R
CORPUS CHRISTI PTCLDY    75  66  73 SE23G29   29.80R
DALLAS FTW     MOCLDY    80  57  45 SE16      29.71S
DEL RIO        LGT RAIN  80  63  55 S13       29.66R
EL PASO        FAIR      82  17   9 W26G35    29.75R
HOUSTON INT    PTCLDY    75  64  68 S12       29.84R
LUBBOCK        MOCLDY    84  22  10 SW25G31   29.62S
SAN ANGELO     CLOUDY    86  53  32 S15G25    29.64S
SAN ANTONIO    MOCLDY    82  62  50 SE20G28   29.77R
WACO           PTCLDY    78  60  53 SE14G24   29.74S
WICHITA FALLS  NOT AVBL
$$
...OTHER LOCATIONS IN NEW MEXICO...

CITY           SKY/WX    TMP DP  RH WIND       PRES   REMARKS
ALAMAGORDO     CLEAR     79  16   9 W21G33    29.77R
ALBUQUERQUE    CLOUDY    64  23  21 N18G30    29.82R
CANNON AFB     CLEAR     80  11   7 SW22G29   29.63F
CLOVIS         CLEAR     79  19  11 SW26G33   29.65S
HOLLOMAN AFB   CLEAR     79  16   9 W24G33    29.75R
ROSWELL        CLEAR     84  11   6 SW18G25   29.64R
RUIDOSO        PTCLDY    64  14  14 SW31G45   29.83F
SANTA FE       CLOUDY    59  20  22 NW17      29.84R
TRUTH OR CONSE PTCLDY    75  18  11 W22G32    29.79R
TUCUMCARI      PTCLDY    81  17   9 SW17G30   29.57S
$$

USA.gov is the U.S. government's official web portal to all federal, state and local government web resources and services.